OPS 4682 DEB, 38455

Orbit data source: Space-Track

OPS 4682 DEB, 38455 is space debris in LEO originally from a launch on Sat, 03 Apr 1965 UTC launched from the Air Force Western Test Range (AFWTR). Debris objects in space refer to the collection of defunct objects orbiting the Earth. Examples of debris include non-operational satellites, rocket bodies, and fragments generated from explosions, collisions, or faulty payload assembly.

Loading next visibility...
Identifier
38455, 1965-027FL
Orbit
LEO
Country
Flag of USUS
Related business
Manufacturer
Unknown
Mission
Spacecraft
Bus & Motor
Unknown
Mass
Unknown
Launch date (UTC)
1965-04-03 (61 years ago)
Launch vehicle
Unknown
Launch site
Air Force Western Test Range (AFWTR)
Object type
Payload
Rocket body
Debris
Shape & HBR
Unknown shape, 0.1 m
Radar Cross Section
Medium (>0.1 m² and <1 m²)

Expand to show TLE details & history
Last TLE update: 3 days ago

TLE from 3 days ago
0 OPS 4682 DEB
1 38455U 65027FL  26262.55618239 -.00000193  00000-0 -68722-3 0  9995
2 38455  90.2434   6.3874 0029199 151.3570 208.9163 12.97945889596752
Epoch: 2026-09-19T13:20Z
TLE epoch observation values (Epoch: 2026-09-19T13:20:54.158Z)
Latitude
0.00005°
Longitude
167.69872°
Altitude
1,292.593 km
Speed
7.201 km/s
True Right ascension
00h 25m 32s
True Declination
0° 00' 00"
Sunlit
Object was in full shadow at epoch
Visualization orbit readout
Latitude
Unknown
Longitude
Unknown
Altitude
Unknown
Speed
Unknown
Apparent Right ascension
Unknown
Apparent Declination
Unknown
Sunlit
N/A
Visualization observer readout
Local Sidereal Time
22:49:27
Azimuth
Unknown
Elevation
Unknown
Doppler factor
Unknown
Orbital elements
Apogee altitude
1,289.599 km
Perigee altitude
1,244.952 km
Semi-major axis
7,645.412 km
Eccentricity
0.00292
Inclination
90.2434°
RAAN
6.3874°
Arg. of periapsis
151.357°
True anomaly
208.75503°
Mean anomaly
208.9163°
Eccentric anomaly
208.83561°
Mean motion
3.2467 °/min
Orbital period
110.88 mins
BSTAR
-0.00068722
Loading maneuver chart data...
Computing Atmospheric mass density...
Loading historical data...
Loading historical data...
Loading historical data...
Loading historical data...
Loading historical data...
Loading historical data...
Loading historical data...

Documentation

Showing up to 5 results
|